This demonstration page uses our WeatherBlox Daily Observations layout. Learn more.

Left ArrowRight Arrow

39.92423, -83.80882

Hourly Observations for June 7, 2022

Temp ( °F °C ) Dew Point ( °F °C ) Humidity (%) Winds ( mph kmh ) Pressure ( in mb ) Visibility ( mi km ) Precip ( " mm )
12:38 am 00:38 Cloudy with Light Rain N/A N/A N/A SSW 9 15 N/A 10 16 0.02 0.51
12:53 am 00:53 Cloudy with Light Rain N/A N/A N/A SSW 7 11 N/A 10 16 0.02 0.51
12:56 am 00:56 Cloudy with Rain N/A N/A N/A SSW 7 11 N/A 10 16 0.03 0.76
1:56 am 01:56 Cloudy N/A N/A N/A SSW 6 9 N/A 7 11 0.01 0.25
2:08 am 02:08 Mostly Cloudy N/A N/A N/A SSW 6 9 N/A 10 16 0.00 0.00
2:56 am 02:56 Cloudy with Light Rain N/A N/A N/A SSW 10 17 N/A 10 16 0.03 0.76
3:45 am 03:45 Cloudy with Light Rain 64 18 N/A N/A SW 14 22 29.78 1008 10 16 0.01 0.25
3:56 am 03:56 Cloudy with Light Rain 64 18 N/A N/A SSW 10 17 29.78 1009 10 16 0.01 0.25
4:39 am 04:39 Cloudy N/A N/A N/A SSW 5 7 N/A 10 16 0.00 0.00
4:56 am 04:56 Cloudy with Light Rain N/A N/A N/A SSW 6 9 N/A 10 16 0.00 0.00
5:56 am 05:56 Cloudy N/A N/A N/A WSW 9 15 N/A 10 16 0.00 0.00
6:22 am 06:22 Cloudy 64 18 N/A N/A WSW 6 9 29.77 1008 10 16 0.00 0.00
6:46 am 06:46 Cloudy 64 18 N/A N/A WSW 8 13 29.78 1008 10 16 0.00 0.00
6:56 am 06:56 Cloudy 64 18 N/A N/A WSW 9 15 29.78 1008 10 16 0.00 0.00
7:24 am 07:24 Cloudy 66 19 N/A N/A W 9 15 29.79 1009 10 16 0.00 0.00
7:42 am 07:42 Cloudy 66 19 N/A N/A WSW 9 15 29.79 1009 10 16 0.00 0.00
7:49 am 07:49 Cloudy 66 19 N/A N/A WSW 8 13 29.79 1009 10 16 0.00 0.00
7:56 am 07:56 Cloudy 66 19 N/A N/A WSW 10 17 29.80 1009 10 16 0.00 0.00
8:56 am 08:56 Mostly Cloudy 68 20 N/A N/A W 14 22 29.82 1010 10 16 0.00 0.00
9:17 am 09:17 Cloudy 68 20 N/A N/A W 13 20 29.81 1010 10 16 0.00 0.00
9:56 am 09:56 Cloudy 70 21.1 70 21.1 100 100 W 12 19 29.82 1010 10 16 0.00 0.00
10:56 am 10:56 Cloudy 72 22.2 70 21.1 94 94 W 14 22 29.85 1011 10 16 0.00 0.00
11:56 am 11:56 Cloudy 72 22.2 68 20 87 87 WSW 12 19 29.84 1011 10 16 0.00 0.00
12:05 pm 12:05 Mostly Cloudy 73 23 70 21 89 89 W 14 22 29.82 1010 10 16 0.00 0.00
12:56 pm 12:56 Cloudy 74 23.3 67 19.4 79 79 WSW 13 20 29.82 1010 10 16 0.00 0.00
1:10 pm 13:10 Cloudy 75 24 66 19 74 74 WSW 12 19 29.82 1010 10 16 0.00 0.00
1:37 pm 13:37 Mostly Cloudy 73 23 66 19 78 78 SW 13 20 29.83 1010 10 16 0.00 0.00
1:56 pm 13:56 Cloudy 75 23.9 68 20 79 79 WSW 12 19 29.83 1010 10 16 0.00 0.00
2:56 pm 14:56 Mostly Cloudy 74 23.3 69 20.6 85 85 SW 14 22 29.83 1010 10 16 0.00 0.00
3:27 pm 15:27 Cloudy 73 23 70 21 89 89 SSW 13 20 29.83 1010 10 16 0.00 0.00
3:34 pm 15:34 Cloudy 73 23 70 21 89 89 WSW 13 20 29.83 1010 10 16 0.00 0.00
3:44 pm 15:44 Cloudy 73 23 70 21 89 89 SW 14 22 29.83 1010 10 16 0.00 0.00
3:56 pm 15:56 Cloudy 76 24.4 69 20.6 79 79 SW 15 24 29.85 1011 10 16 0.00 0.00
4:04 pm 16:04 Cloudy 75 24 70 21 83 83 SW 15 24 29.82 1010 10 16 0.00 0.00
4:15 pm 16:15 Mostly Cloudy 75 24 70 21 83 83 WSW 14 22 29.82 1010 10 16 0.00 0.00
4:25 pm 16:25 Cloudy 73 23 70 21 89 89 WSW 9 15 29.82 1010 10 16 0.00 0.00
4:32 pm 16:32 Cloudy 73 23 70 21 89 89 NW 10 17 29.83 1010 10 16 0.00 0.00
4:54 pm 16:54 Cloudy with Rain 70 21 70 21 100 100 W 15 24 29.84 1010 5 8 0.08 2.03
4:56 pm 16:56 Cloudy with Heavy Rain 70 21 N/A N/A WNW 16 26 29.84 1010 4 6 0.12 3.05
5:00 pm 17:00 Cloudy with Thunderstorms 66 19 N/A N/A W 15 24 29.85 1011 5 8 0.01 0.25
5:21 pm 17:21 Cloudy with Light Rain 66 19 N/A N/A W 10 17 29.86 1011 9 14 0.04 1.02
5:56 pm 17:56 Partly Cloudy 72 22 N/A N/A WSW 9 15 29.83 1010 10 16 0.04 1.02
6:56 pm 18:56 Cloudy 73 23 N/A N/A W 8 13 29.87 1012 10 16 0.00 0.00
7:56 pm 19:56 Partly Cloudy 73 22.8 73 22.8 100 100 W 7 11 29.88 1012 10 16 0.00 0.00
8:56 pm 20:56 Sunny 70 21.1 68 20 93 93 NW 7 11 29.90 1013 10 16 0.00 0.00
9:28 pm 21:28 Mostly Clear 68 20 68 20 100 100 NW 6 9 29.90 1013 10 16 0.00 0.00
9:56 pm 21:56 Clear 66 18.9 66 18.9 100 100 N 6 9 29.93 1013 10 16 0.00 0.00
10:56 pm 22:56 Clear 64 17.8 63 17.2 96 96 N 6 9 29.93 1014 10 16 0.00 0.00
11:56 pm 23:56 Clear 63 17.2 62 16.7 97 97 N 5 7 29.94 1014 10 16 0.00 0.00

Powered by AerisWeather